Regional Weather Roundup
Issued by NWS Sioux Falls, SD

Home | Current Version | Previous Version | Graphics & Text | Print | Product List | Glossary On
Versions: 1 2 3 4 5 6 7 8 9 10 11 12 13 14 15 16 17 18 19 20 21 22 23 24 25 26 27 28 29 30 31 32 33 34 35 36 37 38 39 40 41 42 43 44 45 46 47 48 49 50
000
ASUS43 KFSD 221510
RWRFSD

WEATHER ROUNDUP FOR SE SOUTH DAKOTA/SW MINNESOTA/NW IOWA
NATIONAL WEATHER SERVICE SIOUX FALLS SD
900 AM CST WED FEB 22 2017

NOTE: "FAIR" INDICATES FEW OR NO CLOUDS BELOW 12,000 FEET WITH NO
SIGNIFICANT WEATHER AND OR OBSTRUCTIONS TO VISIBILITY.


SDZ038>040-050-052>070-221600-
SOUTHEAST SOUTH DAKOTA

CITY           SKY/WX    TMP DP  RH WIND       PRES   REMARKS
BROOKINGS      MOSUNNY   42  38  85 E3        29.58R
CHAMBERLAIN    SUNNY     50  41  70 W13       29.67S
HURON          SUNNY     42  39  89 W6        29.62S
MADISON        FAIR      45  45 100 W7        29.61R
MITCHELL       MOSUNNY   48  40  73 W8        29.65R
SIOUX FALLS    PTSUNNY   48  40  73 SE6       29.61F
WINNER         FAIR      52  37  56 W17       29.68S
YANKTON        SUNNY     48  36  61 SW5       29.64F
$$

MNZ071-072-080-081-089-090-097-098-221600-
SOUTHWEST MINNESOTA

CITY           SKY/WX    TMP DP  RH WIND       PRES   REMARKS
FAIRMONT       PTSUNNY   45  37  73 W16       29.59S
JACKSON        CLOUDY    45  34  65 W14       29.61S
LUVERNE        CLOUDY    36  32  87 CALM      29.64R
MARSHALL       CLOUDY    43  40  89 S6        29.59F
MONTEVIDEO     PTSUNNY   37  37 100 N7        29.60F
PIPESTONE      PTSUNNY   45  36  70 CALM      29.59F
REDWOOD FALLS  CLOUDY    42  38  85 CALM      29.60F
TRACY          MOSUNNY   45  42  87 S3        29.60F
WINDOM         MOSUNNY   45  36  70 W12       29.60F
WORTHINGTON    SUNNY     43  36  76 SW10      29.62F
$$

IAZ001>003-012>014-020>022-031-032-NEZ013-014-SDZ071-221600-
NORTHWEST IOWA

CITY           SKY/WX    TMP DP  RH WIND       PRES   REMARKS
CHEROKEE       MOSUNNY   47  37  68 W3        29.64R
DENISON        SUNNY     48  37  66 S8        29.61F
ESTHERVILLE    CLOUDY    46  38  73 W12       29.60S
LE MARS        SUNNY     45  36  70 CALM      29.66S
ORANGE CITY    SUNNY     45  37  76 W6        29.64F
SHELDON        MOSUNNY   45  41  87 SW8       29.62F
SIOUX CITY     SUNNY     48  36  63 NW6       29.65R
SPENCER        CLOUDY    45  37  73 W9        29.62S
STORM LAKE     MOSUNNY   46  36  66 W14       29.62R
$$

ABBREVIATIONS USED IN REMARKS
   TC - TEMPERATURE IN CELSIUS
  WCI - WIND CHILL INDEX
   HX - HEAT INDEX
  VSB - VISIBILITY





USA.gov is the U.S. government's official web portal to all federal, state and local government web resources and services.